Retour au catalogue

KUIPER-00602

ActifCommunicationsLEO
NORAD 69286·PAYLOAD·🇺🇸 United States

Lancé May 29, 2026 depuis Vandenberg Space Force Base

Loading…

Prochains Passages (prochaines 24 heures)

TLE

FraisSource: CelesTrak SupGP

Époque: Sep 15, 2026, 02:04 UTC

1 69286C 26118V   26258.08657407  .00002708  00000+0  35441-3 0  2583
2 69286  51.9023 355.5471 0000576 194.6978  22.5407 14.79930719    16

Suivez KUIPER-00602 en temps réel avec AllMySat

Download on the App Store